Lapse_Rate
3.6 2.2 1.1 0.7 0.2 0.9 1.3 0.9 1.2 -0.5 0.1 0.2 0.5 0.5 0.6 0.6 0.9 1.3 1.4 1.7 2.7 3.8 5.0 6.2 6.9 6.6 6.3
3.8 1.4 1.4 1.2 1.0 1.0 0.9 0.7 1.8 0.0 -0.5 -0.3 0.3 0.4 0.2 0.5 0.8 1.0 1.2 1.3 2.2 3.0 3.7 5.8 6.5 6.7 6.8
5.4 2.5 1.1 0.5 0.6 0.5 1.0 0.6 1.0 0.0 -1.2 -0.6 -0.1 0.2 0.1 0.2 0.4 0.8 0.8 1.6 2.0 2.8 3.3 5.1 5.4 6.5 6.7
5.3 2.2 1.2 0.2 0.9 0.4 -0.4 0.1 0.9 -0.5 -1.1 -0.3 0.1 -0.3 -0.5 -0.4 -0.2 0.0 -0.4 1.5 1.7 2.7 4.3 4.5 4.2 6.0 6.7
5.6 2.6 1.8 -0.1 0.7 0.3 1.3 0.8 -0.1 0.1 -1.1 -0.3 -0.5 -0.8 -0.6 -1.0 -0.3 -0.9 -0.3 0.8 1.7 3.1 4.2 4.6 4.4 4.9 5.4
5.3 4.1 2.2 1.6 1.5 0.7 0.8 0.4 1.7 -0.4 -1.6 -2.3 -1.8 0.1 1.2 0.8 0.5 0.1 0.8 1.5 2.5 3.5 4.9 4.8 4.7 4.8 5.9
5.4 5.1 4.9 3.0 1.5 1.2 0.7 0.9 1.5 -2.9 -2.2 -2.5 -3.4 -1.6 0.3 1.3 0.3 -0.0 1.1 2.1 3.3 4.9 5.0 4.9 4.6 4.6 4.5
4.1 4.9 4.5 4.5 3.6 2.3 1.2 -0.1 -3.9 -3.8 -1.7 -0.6 -1.8 -0.9 0.3 1.0 0.2 0.4 1.5 2.5 3.4 4.8 4.8 4.4 4.0 3.8 3.4
2.3 2.8 3.0 2.7 2.8 0.8 -0.6 -0.8 -1.7 -3.0 -3.2 -1.1 -1.0 0.3 -0.2 1.6 1.5 0.5 1.9 2.8 3.7 4.7 4.8 4.4 4.0 3.6 3.3
1.8 2.0 1.3 1.9 1.2 2.2 0.8 0.4 -0.0 -2.6 -3.2 -0.1 -1.8 0.4 1.0 0.9 0.9 1.5 2.5 2.4 3.4 4.4 4.8 4.3 4.0 3.8 3.7
2.2 2.0 0.6 1.0 0.7 1.8 2.5 0.7 0.5 -1.1 -3.7 -1.5 -0.8 0.1 1.1 -0.4 -0.0 1.7 2.4 2.9 2.9 3.0 4.5 4.7 4.4 4.4 4.4
0.4 0.9 0.6 0.4 0.4 0.0 -1.2 -1.0 -1.5 -1.3 -2.1 -2.5 -1.1 -0.6 -0.4 1.3 0.8 0.5 1.4 1.9 1.8 2.1 2.3 2.8 3.5 4.4 4.6
1.4 1.5 1.5 1.8 -0.4 -1.5 -2.3 -2.5 -2.1 -0.9 -0.2 -1.5 -1.0 -0.8 0.3 1.1 0.8 0.4 -0.3 -0.0 0.4 1.7 2.8 2.6 3.0 2.4 2.8
3.8 3.0 0.7 0.3 1.1 0.6 -0.0 -0.5 -0.2 -1.2 -1.9 -0.5 -0.3 0.3 -0.0 0.4 0.8 1.0 0.9 0.9 0.7 1.5 1.9 2.8 3.1 3.8 4.9
4.3 3.5 2.8 2.3 2.4 1.3 1.5 1.1 1.8 0.7 -0.8 -0.5 -0.1 -0.7 -0.1 0.9 1.9 3.1 1.3 0.6 0.8 0.3 1.0 2.2 3.0 4.0 4.3
4.9 4.7 4.3 3.8 3.7 2.4 2.2 2.5 2.6 1.7 2.3 -0.6 -0.7 -0.1 0.6 2.1 2.5 2.4 2.3 2.4 1.7 0.6 1.5 2.7 3.1 3.3 3.9
5.5 4.8 4.5 4.3 4.3 3.9 3.8 3.1 3.4 2.4 1.4 0.3 -0.1 0.7 1.5 5.1 2.0 2.0 2.2 1.6 1.4 1.8 2.2 2.8 3.0 3.2 3.4
Wind_Speed
3 7 9 10 8 15 15 15 15 16 14 12 12 12 11 10 9 10 9 10 11 10 9 11 9 10 7
8 7 8 12 11 11 10 13 15 16 16 13 12 13 11 10 10 10 8 9 11 10 8 10 10 11 13
7 5 3 6 6 8 10 10 15 10 14 13 14 14 13 12 11 11 10 10 12 12 10 10 11 12 10
6 4 4 4 6 6 6 7 8 11 12 11 12 14 15 13 12 12 12 13 14 13 13 11 11 10 12
9 5 5 4 11 9 10 7 8 7 7 8 9 11 14 17 13 14 12 11 14 15 15 14 12 15 16
11 10 14 11 9 11 9 5 5 11 8 6 9 6 10 14 13 11 13 12 13 12 14 12 13 13 18
15 14 14 13 12 11 12 10 8 4 7 5 5 6 9 12 13 14 11 12 11 10 8 7 8 11 12
14 15 14 12 15 15 15 8 3 3 5 4 5 5 5 10 13 13 12 11 11 11 9 7 7 10 11
20 20 18 17 16 8 8 8 5 5 8 4 3 4 4 6 9 9 11 11 11 12 11 9 10 10 8
7 14 15 13 23 19 12 12 8 3 8 7 5 5 4 5 6 10 11 11 11 13 14 13 12 8 6
7 7 5 7 9 14 14 14 12 6 10 9 4 4 1 4 4 6 7 8 7 5 9 14 15 11 4
4 5 5 6 7 8 6 3 1 0 15 6 5 5 5 4 4 5 5 6 7 4 5 6 5 10 10
5 6 6 4 2 2 3 5 6 4 13 3 5 7 5 4 5 5 5 4 5 5 5 4 4 4 3
6 4 0 2 4 3 3 4 3 4 5 8 6 6 4 4 4 6 3 3 5 6 5 4 6 8 8
7 4 3 3 4 3 2 4 3 5 6 5 7 8 6 4 3 4 6 4 5 6 5 6 6 7 8
6 7 7 7 7 5 4 6 5 6 4 7 8 5 3 1 1 5 5 5 5 5 3 5 5 5 9
9 8 7 7 8 8 8 8 5 6 7 6 9 8 8 5 3 9 5 6 6 6 6 5 4 5 5
Wind_Direction
175 182 195 198 189 208 211 208 211 214 216 215 225 232 239 247 254 261 273 276 283 293 288 273 248 260 227
189 193 200 204 199 205 209 209 219 208 214 213 222 236 243 249 250 257 259 272 277 272 287 281 256 247 239
200 179 187 184 193 210 211 208 218 205 212 216 223 232 237 240 249 255 254 260 277 274 265 264 264 231 186
192 175 182 185 206 200 209 213 210 204 215 223 223 228 231 228 233 242 255 251 261 261 258 256 245 215 193
210 186 185 170 202 209 221 200 216 202 201 210 214 219 221 222 211 220 233 238 243 245 236 234 229 223 215
221 220 212 212 207 206 206 192 226 207 194 204 176 218 229 231 209 201 217 227 233 233 224 232 241 235 206
228 221 229 215 202 201 200 206 217 155 180 187 166 216 207 227 213 213 219 224 224 228 215 219 197 178 168
224 232 228 228 203 203 204 187 66 147 190 191 166 205 164 212 214 215 219 218 212 214 206 190 164 164 162
233 233 233 217 197 166 173 177 189 194 199 146 172 155 161 197 207 208 226 221 216 210 199 189 177 169 167
250 251 248 235 192 196 192 202 191 181 182 177 149 172 170 185 183 187 202 212 209 206 201 194 193 185 182
263 255 238 232 214 221 213 207 205 207 181 164 157 174 114 134 163 189 187 179 184 176 197 202 196 196 190
253 251 235 229 222 222 224 218 154 278 165 148 143 160 137 145 164 166 179 173 174 173 182 187 197 207 204
244 245 233 244 115 95 76 98 76 104 159 147 149 141 136 141 162 163 145 181 163 165 178 180 182 176 182
264 265 273 143 198 185 193 175 134 130 69 100 106 135 135 118 119 147 147 156 164 171 166 173 188 203 208
278 259 228 205 209 174 207 195 193 178 153 124 99 89 59 107 125 159 161 141 170 154 166 177 191 197 203
268 262 246 226 219 196 184 199 191 167 218 153 135 113 83 223 249 156 162 160 170 162 175 180 192 192 214
287 269 249 240 224 213 211 187 185 176 168 175 149 156 154 170 130 205 161 164 157 174 188 193 164 171 193